| time (UTC) | temp F | wind direction | speed knots | gust knots | rain 1hr in | rain 24hr in | rain mn in | humidity % | barometer mb |
| 20260502161107 | 60 | 290 | 0.9 | 5.2 | 0.00 | 0.00 | 0.00 | 77 | 1014.2 |
| 20260502160604 | 60 | 280 | 2.6 | 5.2 | 0.00 | 0.00 | 0.00 | 77 | 1014.2 |
| 20260502160108 | 60 | 269 | 0.9 | 5.2 | 0.00 | 0.00 | 0.00 | 79 | 1014.2 |
| 20260502152104 | 58 | 39 | 1.7 | 2.6 | 0.00 | 0.00 | 0.00 | 78 | 1014.1 |
| 20260502151604 | 58 | 52 | 0.9 | 2.6 | 0.00 | 0.00 | 0.00 | 78 | 1014.1 |
| 20260502151104 | 57 | 69 | 0.9 | 2.6 | 0.00 | 0.00 | 0.00 | 79 | 1014.1 |
| 20260502150603 | 57 | 69 | 0.9 | 2.6 | 0.00 | 0.00 | 0.00 | 78 | 1014.1 |
| 20260502150104 | 57 | 69 | 1.7 | 2.6 | 0.00 | 0.00 | 0.00 | 78 | 1014.2 |
| 20260502140104 | 54 | 70 | 0.0 | 0.9 | 0.00 | 0.00 | 0.00 | 73 | 1014.1 |
| 20260502130606 | 56 | 56 | 0.0 | 0.0 | 0.00 | 0.00 | 0.00 | 71 | 1013.1 |
| 20260502130107 | 56 | 56 | 0.0 | 0.0 | 0.00 | 0.00 | 0.00 | 70 | 1013.2 |
| 20260502123604 | 56 | 56 | 0.0 | 1.7 | 0.00 | 0.00 | 0.00 | 69 | 1012.8 |
| 20260502123105 | 56 | 56 | 0.0 | 1.7 | 0.00 | 0.00 | 0.00 | 69 | 1012.8 |
| 20260502122104 | 56 | 56 | 0.0 | 0.9 | 0.00 | 0.00 | 0.00 | 69 | 1012.7 |
| 20260502121604 | 56 | 53 | 0.0 | 0.9 | 0.00 | 0.00 | 0.00 | 70 | 1012.8 |
| 20260502121106 | 56 | 46 | 0.0 | 0.9 | 0.00 | 0.00 | 0.00 | 69 | 1012.8 |
| 20260502120604 | 57 | 46 | 0.0 | 0.9 | 0.00 | 0.00 | 0.00 | 70 | 1012.8 |
| 20260502120107 | 57 | 46 | 0.0 | 0.9 | 0.00 | 0.00 | 0.00 | 69 | 1012.7 |
| 20260502115604 | 57 | 46 | 0.0 | 0.9 | 0.00 | 0.00 | 0.00 | 67 | 1012.7 |
| 20260502114605 | 57 | 46 | 0.0 | 0.0 | 0.00 | 0.00 | 0.00 | 59 | 1012.8 |
| 20260502113604 | 57 | 46 | 0.0 | 0.9 | 0.00 | 0.00 | 0.00 | 53 | 1012.8 |
| 20260502113104 | 57 | 45 | 0.0 | 0.9 | 0.00 | 0.00 | 0.00 | 53 | 1012.8 |
| 20260502112604 | 57 | 43 | 0.0 | 0.9 | 0.00 | 0.00 | 0.00 | 52 | 1012.8 |
| 20260502110604 | 58 | 46 | 0.0 | 0.0 | 0.00 | 0.00 | 0.00 | 53 | 1012.8 |
| 20260502110106 | 58 | 46 | 0.0 | 0.0 | 0.00 | 0.00 | 0.00 | 55 | 1012.7 |
| 20260502105604 | 58 | 46 | 0.0 | 0.0 | 0.00 | 0.00 | 0.00 | 55 | 1012.7 |
| 20260502105104 | 58 | 46 | 0.0 | 0.0 | 0.00 | 0.00 | 0.00 | 58 | 1012.7 |
| 20260502104604 | 58 | 46 | 0.0 | 0.9 | 0.00 | 0.00 | 0.00 | 60 | 1012.7 |
| 20260502104104 | 58 | 46 | 0.0 | 0.9 | 0.00 | 0.00 | 0.00 | 61 | 1012.7 |
| 20260502103604 | 58 | 43 | 0.0 | 0.9 | 0.00 | 0.00 | 0.00 | 61 | 1012.7 |
| 20260502103104 | 57 | 46 | 0.0 | 1.7 | 0.00 | 0.00 | 0.00 | 61 | 1012.7 |
| 20260502102605 | 58 | 39 | 0.0 | 2.6 | 0.00 | 0.00 | 0.00 | 61 | 1012.7 |
| 20260502102104 | 58 | 46 | 1.7 | 2.6 | 0.00 | 0.00 | 0.00 | 61 | 1012.7 |
| 20260502100604 | 57 | 32 | 0.9 | 2.6 | 0.00 | 0.00 | 0.00 | 67 | 1012.6 |
| 20260502100106 | 57 | 18 | 0.9 | 2.6 | 0.00 | 0.00 | 0.00 | 74 | 1012.6 |
| 20260502090604 | 57 | 350 | 0.0 | 0.9 | 0.00 | 0.00 | 0.00 | 79 | 1013.2 |
| 20260502090104 | 57 | 350 | 0.0 | 0.9 | 0.00 | 0.00 | 0.00 | 79 | 1013.2 |
| 20260502080107 | 59 | 349 | 0.0 | 0.0 | 0.00 | 0.00 | 0.00 | 78 | 1014.1 |
| 20260502071104 | 60 | 350 | 0.0 | 0.0 | 0.00 | 0.00 | 0.00 | 74 | 1013.9 |
| 20260502070607 | 60 | 350 | 0.0 | 0.9 | 0.00 | 0.00 | 0.00 | 74 | 1013.9 |
| 20260502070105 | 60 | 350 | 0.0 | 0.9 | 0.00 | 0.00 | 0.00 | 73 | 1014.0 |
| 20260502065604 | 60 | 349 | 0.0 | 0.9 | 0.00 | 0.00 | 0.00 | 73 | 1014.0 |
| 20260502065104 | 61 | 349 | 0.0 | 0.9 | 0.00 | 0.00 | 0.00 | 74 | 1014.1 |
| 20260502064604 | 61 | 349 | 0.0 | 0.9 | 0.00 | 0.00 | 0.00 | 74 | 1014.1 |
| 20260502063604 | 62 | 349 | 0.0 | 0.0 | 0.00 | 0.00 | 0.00 | 74 | 1014.1 |
| 20260502062105 | 62 | 349 | 0.0 | 0.0 | 0.00 | 0.00 | 0.00 | 73 | 1014.2 |
| 20260502061605 | 62 | 349 | 0.0 | 0.0 | 0.00 | 0.00 | 0.00 | 73 | 1014.1 |
| 20260502061106 | 62 | 349 | 0.0 | 0.0 | 0.00 | 0.00 | 0.00 | 73 | 1014.1 |
| 20260502060605 | 62 | 349 | 0.0 | 0.0 | 0.00 | 0.00 | 0.00 | 72 | 1014.1 |
| 20260502055606 | 62 | 349 | 0.0 | 1.7 | 0.00 | 0.00 | 0.00 | 71 | 1014.1 |
| 20260502055105 | 62 | 349 | 0.0 | 1.7 | 0.00 | 0.00 | 0.00 | 71 | 1014.2 |
| 20260502054605 | 63 | 348 | 0.0 | 1.7 | 0.00 | 0.00 | 0.00 | 70 | 1014.2 |
| 20260502054104 | 63 | 348 | 0.0 | 0.9 | 0.00 | 0.00 | 0.00 | 70 | 1014.2 |
| 20260502053604 | 63 | 348 | 0.0 | 0.9 | 0.00 | 0.00 | 0.00 | 70 | 1014.3 |
| 20260502052604 | 63 | 348 | 0.0 | 0.9 | 0.00 | 0.00 | 0.00 | 69 | 1014.4 |
| 20260502052104 | 64 | 348 | 0.0 | 0.9 | 0.00 | 0.00 | 0.00 | 69 | 1014.3 |
| 20260502051604 | 64 | 348 | 0.0 | 0.9 | 0.00 | 0.00 | 0.00 | 69 | 1014.3 |
| 20260502051105 | 64 | 348 | 0.0 | 0.0 | 0.00 | 0.00 | 0.00 | 68 | 1014.4 |
| 20260502050605 | 64 | 348 | 0.0 | 0.0 | 0.00 | 0.00 | 0.00 | 68 | 1014.4 |
| 20260502050107 | 64 | 348 | 0.0 | 0.0 | 0.00 | 0.00 | 0.00 | 67 | 1014.4 |
| 20260502045604 | 64 | 348 | 0.0 | 0.0 | 0.00 | 0.00 | 0.00 | 67 | 1014.4 |
| 20260502044604 | 65 | 348 | 0.0 | 0.0 | 0.00 | 0.00 | 0.00 | 66 | 1014.4 |
| 20260502043604 | 65 | 348 | 0.0 | 2.6 | 0.00 | 0.00 | 0.00 | 66 | 1014.1 |
| 20260502043104 | 65 | 348 | 0.9 | 2.6 | 0.00 | 0.00 | 0.00 | 65 | 1014.0 |
| 20260502042104 | 66 | 327 | 0.0 | 2.6 | 0.00 | 0.00 | 0.00 | 65 | 1013.8 |
| 20260502041604 | 66 | 327 | 1.7 | 2.6 | 0.00 | 0.00 | 0.00 | 64 | 1013.8 |
| 20260502041103 | 67 | 327 | 1.7 | 2.6 | 0.00 | 0.00 | 0.00 | 63 | 1013.8 |
| 20260502040604 | 67 | 327 | 0.9 | 2.6 | 0.00 | 0.00 | 0.00 | 63 | 1013.8 |
| 20260502040107 | 67 | 327 | 0.9 | 4.3 | 0.00 | 0.00 | 0.00 | 62 | 1013.8 |
| 20260502035604 | 68 | 326 | 1.7 | 4.3 | 0.00 | 0.00 | 0.00 | 62 | 1013.8 |
| 20260502035104 | 68 | 326 | 0.9 | 5.2 | 0.00 | 0.00 | 0.00 | 61 | 1013.5 |
| 20260502034103 | 69 | 325 | 4.3 | 6.1 | 0.00 | 0.00 | 0.00 | 60 | 1013.3 |
| 20260502033104 | 70 | 323 | 3.5 | 6.1 | 0.00 | 0.00 | 0.00 | 58 | 1013.2 |
| 20260502032604 | 70 | 291 | 1.7 | 2.6 | 0.00 | 0.00 | 0.00 | 58 | 1013.1 |
| 20260502032104 | 70 | 284 | 1.7 | 2.6 | 0.00 | 0.00 | 0.00 | 57 | 1013.0 |
| 20260502031604 | 70 | 284 | 1.7 | 4.3 | 0.00 | 0.00 | 0.00 | 57 | 1012.8 |
| 20260502031105 | 70 | 283 | 2.6 | 4.3 | 0.00 | 0.00 | 0.00 | 57 | 1012.8 |
| 20260502030606 | 71 | 273 | 2.6 | 2.6 | 0.00 | 0.00 | 0.00 | 56 | 1012.7 |
| 20260502030106 | 71 | 269 | 1.7 | 4.3 | 0.00 | 0.00 | 0.00 | 55 | 1012.7 |
| 20260502025104 | 72 | 267 | 2.6 | 4.3 | 0.00 | 0.00 | 0.00 | 52 | 1012.3 |
| 20260502024603 | 73 | 268 | 2.6 | 4.3 | 0.00 | 0.00 | 0.00 | 50 | 1012.2 |
| 20260502024104 | 73 | 267 | 2.6 | 4.3 | 0.00 | 0.00 | 0.00 | 49 | 1012.2 |
| 20260502023104 | 74 | 267 | 2.6 | 2.6 | 0.00 | 0.00 | 0.00 | 48 | 1012.2 |
| 20260502022603 | 74 | 266 | 1.7 | 5.2 | 0.00 | 0.00 | 0.00 | 47 | 1012.2 |
| 20260502022103 | 75 | 265 | 2.6 | 5.2 | 0.00 | 0.00 | 0.00 | 47 | 1012.2 |
| 20260502021604 | 75 | 258 | 2.6 | 4.3 | 0.00 | 0.00 | 0.00 | 46 | 1012.2 |
| 20260502021104 | 76 | 251 | 2.6 | 5.2 | 0.00 | 0.00 | 0.00 | 46 | 1012.2 |
| 20260502020604 | 76 | 273 | 3.5 | 5.2 | 0.00 | 0.00 | 0.00 | 44 | 1012.2 |
| 20260502020106 | 77 | 276 | 2.6 | 7.0 | 0.00 | 0.00 | 0.00 | 44 | 1012.1 |
| 20260502015604 | 77 | 275 | 4.3 | 7.0 | 0.00 | 0.00 | 0.00 | 43 | 1012.0 |
| 20260502015104 | 78 | 274 | 4.3 | 6.1 | 0.00 | 0.00 | 0.00 | 42 | 1011.9 |
| 20260502014604 | 78 | 273 | 3.5 | 6.1 | 0.00 | 0.00 | 0.00 | 41 | 1011.8 |
| 20260502014104 | 79 | 272 | 4.3 | 6.1 | 0.00 | 0.00 | 0.00 | 41 | 1011.7 |
| 20260502013604 | 79 | 276 | 4.3 | 7.0 | 0.00 | 0.00 | 0.00 | 40 | 1011.7 |
| 20260502013104 | 80 | 274 | 4.3 | 7.0 | 0.00 | 0.00 | 0.00 | 38 | 1011.8 |
| 20260502012604 | 80 | 286 | 4.3 | 7.8 | 0.00 | 0.00 | 0.00 | 30 | 1011.8 |
| 20260502012104 | 80 | 273 | 4.3 | 7.8 | 0.00 | 0.00 | 0.00 | 29 | 1011.8 |
| 20260502011604 | 80 | 289 | 5.2 | 8.7 | 0.00 | 0.00 | 0.00 | 28 | 1011.7 |
| 20260502011104 | 81 | 311 | 5.2 | 8.7 | 0.00 | 0.00 | 0.00 | 28 | 1011.7 |
| 20260502010604 | 81 | 301 | 4.3 | 8.7 | 0.00 | 0.00 | 0.00 | 28 | 1011.7 |
| 20260502005104 | 81 | 277 | 4.3 | 10.4 | 0.00 | 0.00 | 0.00 | 33 | 1011.8 |
| 20260502004604 | 81 | 320 | 6.1 | 10.4 | 0.00 | 0.00 | 0.00 | 27 | 1011.8 |
| 20260502004103 | 81 | 309 | 4.3 | 12.2 | 0.00 | 0.00 | 0.00 | 31 | 1011.7 |
| 20260502003603 | 81 | 291 | 5.2 | 12.2 | 0.00 | 0.00 | 0.00 | 31 | 1011.6 |
| 20260502003105 | 82 | 297 | 5.2 | 10.4 | 0.00 | 0.00 | 0.00 | 30 | 1011.6 |
| 20260502002104 | 82 | 320 | 6.1 | 11.3 | 0.00 | 0.00 | 0.00 | 31 | 1011.5 |
| 20260502001604 | 82 | 298 | 6.1 | 11.3 | 0.00 | 0.00 | 0.00 | 32 | 1011.4 |
| 20260502000605 | 82 | 314 | 6.1 | 10.4 | 0.00 | 0.00 | 0.00 | 31 | 1011.4 |
| 20260502000106 | 82 | 309 | 5.2 | 12.2 | 0.00 | 0.00 | 0.00 | 31 | 1011.4 |
| 20260501235604 | 82 | 320 | 4.3 | 13.0 | 0.00 | 0.00 | 0.00 | 31 | 1011.4 |
| 20260501235104 | 83 | 293 | 7.0 | 13.0 | 0.00 | 0.00 | 0.00 | 32 | 1011.4 |
| 20260501234604 | 83 | 304 | 4.3 | 13.0 | 0.00 | 0.00 | 0.00 | 31 | 1011.3 |
| 20260501234104 | 83 | 327 | 6.1 | 13.0 | 0.00 | 0.00 | 0.00 | 32 | 1011.4 |
| 20260501233604 | 84 | 322 | 5.2 | 10.4 | 0.00 | 0.00 | 0.00 | 31 | 1011.3 |
| 20260501233104 | 83 | 300 | 4.3 | 10.4 | 0.00 | 0.00 | 0.00 | 30 | 1011.3 |
| 20260501232604 | 83 | 323 | 7.0 | 11.3 | 0.00 | 0.00 | 0.00 | 28 | 1011.3 |
| 20260501232104 | 83 | 321 | 6.1 | 11.3 | 0.00 | 0.00 | 0.00 | 29 | 1011.3 |
| 20260501231604 | 84 | 322 | 7.8 | 11.3 | 0.00 | 0.00 | 0.00 | 29 | 1011.3 |
| 20260501231104 | 84 | 326 | 6.1 | 10.4 | 0.00 | 0.00 | 0.00 | 28 | 1011.3 |
| 20260501230604 | 84 | 307 | 6.1 | 11.3 | 0.00 | 0.00 | 0.00 | 27 | 1011.4 |
| 20260501230104 | 84 | 295 | 6.1 | 11.3 | 0.00 | 0.00 | 0.00 | 27 | 1011.5 |
| 20260501225604 | 85 | 278 | 6.1 | 10.4 | 0.00 | 0.00 | 0.00 | 27 | 1011.5 |
| 20260501225104 | 84 | 306 | 4.3 | 10.4 | 0.00 | 0.00 | 0.00 | 29 | 1011.6 |
| 20260501224605 | 84 | 339 | 4.3 | 10.4 | 0.00 | 0.00 | 0.00 | 29 | 1011.7 |
| 20260501224104 | 84 | 296 | 6.1 | 10.4 | 0.00 | 0.00 | 0.00 | 28 | 1011.8 |
| 20260501223604 | 84 | 312 | 6.1 | 10.4 | 0.00 | 0.00 | 0.00 | 29 | 1011.7 |
| 20260501223104 | 84 | 269 | 4.3 | 12.2 | 0.00 | 0.00 | 0.00 | 30 | 1011.8 |
| 20260501222104 | 83 | 278 | 5.2 | 8.7 | 0.00 | 0.00 | 0.00 | 32 | 1011.8 |
| 20260501221603 | 83 | 281 | 4.3 | 8.7 | 0.00 | 0.00 | 0.00 | 32 | 1011.8 |
| 20260501221104 | 83 | 288 | 4.3 | 8.7 | 0.00 | 0.00 | 0.00 | 31 | 1012.0 |
| 20260501220606 | 83 | 290 | 4.3 | 10.4 | 0.00 | 0.00 | 0.00 | 32 | 1012.1 |
| 20260501220106 | 82 | 276 | 4.3 | 10.4 | 0.00 | 0.00 | 0.00 | 31 | 1012.3 |
| 20260501215604 | 82 | 288 | 5.2 | 10.4 | 0.00 | 0.00 | 0.00 | 31 | 1012.4 |
| 20260501215104 | 82 | 287 | 4.3 | 8.7 | 0.00 | 0.00 | 0.00 | 31 | 1012.4 |
| 20260501214104 | 82 | 273 | 3.5 | 7.8 | 0.00 | 0.00 | 0.00 | 34 | 1012.5 |
| 20260501213104 | 82 | 302 | 4.3 | 7.0 | 0.00 | 0.00 | 0.00 | 34 | 1012.6 |
| 20260501212604 | 82 | 280 | 4.3 | 7.0 | 0.00 | 0.00 | 0.00 | 33 | 1012.6 |
| 20260501212104 | 82 | 226 | 0.9 | 7.8 | 0.00 | 0.00 | 0.00 | 34 | 1012.6 |
| 20260501211604 | 81 | 265 | 3.5 | 7.8 | 0.00 | 0.00 | 0.00 | 33 | 1012.7 |
| 20260501211104 | 80 | 264 | 2.6 | 7.0 | 0.00 | 0.00 | 0.00 | 36 | 1012.8 |
| 20260501210604 | 80 | 193 | 2.6 | 7.0 | 0.00 | 0.00 | 0.00 | 35 | 1012.9 |
| 20260501210104 | 80 | 277 | 5.2 | 7.8 | 0.00 | 0.00 | 0.00 | 35 | 1012.9 |
| 20260501205604 | 79 | 274 | 3.5 | 7.8 | 0.00 | 0.00 | 0.00 | 36 | 1013.0 |
| 20260501205105 | 79 | 317 | 2.6 | 7.8 | 0.00 | 0.00 | 0.00 | 36 | 1013.0 |
| 20260501204604 | 79 | 273 | 4.3 | 7.8 | 0.00 | 0.00 | 0.00 | 37 | 1013.0 |
| 20260501203605 | 79 | 289 | 4.3 | 7.8 | 0.00 | 0.00 | 0.00 | 35 | 1013.1 |
| 20260501203104 | 78 | 322 | 2.6 | 8.7 | 0.00 | 0.00 | 0.00 | 37 | 1013.1 |
| 20260501202104 | 77 | 322 | 5.2 | 7.0 | 0.00 | 0.00 | 0.00 | 39 | 1013.1 |
| 20260501201105 | 76 | 302 | 4.3 | 7.0 | 0.00 | 0.00 | 0.00 | 39 | 1013.1 |
| 20260501200603 | 76 | 287 | 2.6 | 6.1 | 0.00 | 0.00 | 0.00 | 40 | 1013.1 |
| 20260501195604 | 75 | 289 | 2.6 | 7.0 | 0.00 | 0.00 | 0.00 | 41 | 1013.4 |
| 20260501194604 | 75 | 287 | 3.5 | 6.1 | 0.00 | 0.00 | 0.00 | 43 | 1013.5 |
| 20260501194105 | 74 | 273 | 3.5 | 6.1 | 0.00 | 0.00 | 0.00 | 42 | 1013.5 |
| 20260501193604 | 74 | 256 | 3.5 | 5.2 | 0.00 | 0.00 | 0.00 | 45 | 1013.6 |
| 20260501192604 | 73 | 271 | 2.6 | 7.0 | 0.00 | 0.00 | 0.00 | 46 | 1013.6 |
| 20260501192104 | 73 | 252 | 4.3 | 7.0 | 0.00 | 0.00 | 0.00 | 48 | 1013.6 |
| 20260501191604 | 72 | 297 | 1.7 | 7.0 | 0.00 | 0.00 | 0.00 | 50 | 1013.7 |
| 20260501191104 | 72 | 312 | 4.3 | 7.0 | 0.00 | 0.00 | 0.00 | 49 | 1013.9 |
| 20260501185604 | 70 | 305 | 2.6 | 6.1 | 0.00 | 0.00 | 0.00 | 53 | 1014.2 |
| 20260501185104 | 70 | 279 | 4.3 | 7.0 | 0.00 | 0.00 | 0.00 | 52 | 1014.3 |
| 20260501184604 | 70 | 279 | 2.6 | 7.0 | 0.00 | 0.00 | 0.00 | 55 | 1014.3 |
| 20260501184104 | 69 | 276 | 4.3 | 7.8 | 0.00 | 0.00 | 0.00 | 55 | 1014.3 |
| 20260501183604 | 69 | 296 | 5.2 | 7.8 | 0.00 | 0.00 | 0.00 | 56 | 1014.3 |
| 20260501183105 | 69 | 296 | 4.3 | 7.8 | 0.00 | 0.00 | 0.00 | 56 | 1014.3 |
| 20260501182604 | 68 | 300 | 3.5 | 7.8 | 0.00 | 0.00 | 0.00 | 58 | 1014.4 |
| 20260501182104 | 68 | 308 | 3.5 | 7.8 | 0.00 | 0.00 | 0.00 | 60 | 1014.4 |
| 20260501181604 | 67 | 271 | 3.5 | 7.0 | 0.00 | 0.00 | 0.00 | 59 | 1014.4 |
| 20260501181106 | 67 | 283 | 4.3 | 7.0 | 0.00 | 0.00 | 0.00 | 60 | 1014.4 |
| 20260501180605 | 67 | 258 | 3.5 | 6.1 | 0.00 | 0.00 | 0.00 | 62 | 1014.4 |
| 20260501180106 | 66 | 262 | 4.3 | 7.0 | 0.00 | 0.00 | 0.00 | 61 | 1014.4 |
| 20260501175604 | 66 | 285 | 4.3 | 7.0 | 0.00 | 0.00 | 0.00 | 62 | 1014.4 |
| 20260501175105 | 66 | 281 | 4.3 | 6.1 | 0.00 | 0.00 | 0.00 | 64 | 1014.5 |
| 20260501174604 | 65 | 319 | 2.6 | 6.1 | 0.00 | 0.00 | 0.00 | 64 | 1014.5 |
| 20260501174104 | 65 | 283 | 2.6 | 6.1 | 0.00 | 0.00 | 0.00 | 66 | 1014.5 |
| 20260501173104 | 63 | 257 | 1.7 | 6.1 | 0.00 | 0.00 | 0.00 | 67 | 1014.5 |
| 20260501172104 | 62 | 297 | 1.7 | 5.2 | 0.00 | 0.00 | 0.00 | 71 | 1014.6 |
| 20260501171605 | 62 | 278 | 2.6 | 5.2 | 0.00 | 0.00 | 0.00 | 71 | 1014.6 |
| 20260501171104 | 61 | 263 | 1.7 | 5.2 | 0.00 | 0.00 | 0.00 | 72 | 1014.7 |
| 20260501170604 | 61 | 260 | 2.6 | 5.2 | 0.00 | 0.00 | 0.00 | 73 | 1014.8 |
| 20260501170106 | 60 | 294 | 0.9 | 4.3 | 0.00 | 0.00 | 0.00 | 74 | 1014.8 |
| 20260501165604 | 60 | 304 | 1.7 | 4.3 | 0.00 | 0.00 | 0.00 | 74 | 1014.8 |
| 20260501164604 | 60 | 257 | 2.6 | 5.2 | 0.00 | 0.00 | 0.00 | 76 | 1014.8 |
| 20260501163604 | 58 | 292 | 1.7 | 5.2 | 0.00 | 0.00 | 0.00 | 78 | 1014.8 |
| 20260501163104 | 58 | 307 | 1.7 | 5.2 | 0.00 | 0.00 | 0.00 | 79 | 1014.8 |
| 20260501162104 | 57 | 291 | 2.6 | 5.2 | 0.00 | 0.00 | 0.00 | 81 | 1014.8 |
| 20260501161604 | 57 | 295 | 2.6 | 5.2 | 0.00 | 0.00 | 0.00 | 82 | 1014.8 |